Location: City of Moscow
(46.7306°N, 116.9989°W)
Time: 05:11:28
(UTC+00:00)

Cosmos 2322 Rocket - Pass Details

Date: 11 December 2025
Orbit: 831 x 851 km, 71.0° (Epoch: 13 January)

Event Time Altitude Azimuth Distance (km) Brightness Sun altitude
Exits shadow 12:47:05 27° 352° (N) 1,569 3.4 -25.7°
Maximum altitude 12:50:01 55° 58° (ENE) 1,020 2.8 -25.2°
Drops below altitude 10° 12:55:34 10° 136° (SE) 2,462 5.3 -24.2°
Sets 12:58:03 0° 141° (SE) 3,390 6.1 -23.8°
